Location: Schommer Observatory
(40.5200°N, 74.4500°W)
Time: 11:15:13
(UTC-04:00)

N. Korean satellite - Pass Details

Date: 10 October 2017
Orbit: 459 x 517 km, 97.2° (Epoch: 16 October)

Event Time Altitude Azimuth Distance (km) Brightness Sun altitude
Rises 19:22:05 0° 181° (S) 2,568 10.3 -11.7°
Reaches altitude 10° 19:24:14 10° 188° (S) 1,681 9.4 -12.1°
Maximum altitude 19:27:42 43° 261° (W) 690 7.9 -12.7°
Drops below altitude 10° 19:31:08 10° 334° (NNW) 1,662 9.6 -13.4°
Sets 19:33:15 0° 342° (NNW) 2,536 10.5 -13.8°
